Regional Weather Roundup
Issued by NWS

Home | Current Version | Previous Version | Text Only | Print | Product List | Glossary Off
Versions: 1 2 3 4 5 6 7 8 9 10 11 12 13 14 15 16 17 18 19 20 21 22 23 24 25 26 27 28 29 30 31 32 33 34 35 36 37 38 39 40 41 42 43 44 45 46 47 48 49 50

000
ASUS43 KFSD 251710
RWRSD

WEATHER ROUNDUP FOR SOUTH DAKOTA
NATIONAL WEATHER SERVICE SIOUX FALLS SD
1100 AM CST SUN JAN 25 2015

NOTE: "FAIR" INDICATES FEW OR NO CLOUDS BELOW 12,000 FEET WITH NO
SIGNIFICANT WEATHER AND/OR OBSTRUCTIONS TO VISIBILITY.


SDZ001>005-009-010-012>017-251800-
NORTHWEST AND NORTH CENTRAL SOUTH DAKOTA

CITY           SKY/WX    TMP DP  RH WIND       PRES   REMARKS
BUFFALO          N/A     40  26  57 W10       29.93F
FAITH            N/A     37  26  64 N16       30.01F
MOBRIDGE       CLOUDY    38  34  85 NW8       30.00R
$$

SDZ012>016-024>037-041>051-057-063-072>074-251800-
SOUTHWEST AND SOUTH CENTRAL SOUTH DAKOTA

CITY           SKY/WX    TMP DP  RH WIND       PRES   REMARKS
RAPID CTY ARPT MOSUNNY   42  20  41 S6        30.04F
PIERRE         CLOUDY    38  31  76 NW15      30.04R
CUSTER         MOSUNNY   44  15  31 W5        30.02F
ELLSWORTH AFB  MOSUNNY   42  22  44 SW5       30.03
PHILIP         SUNNY     40  27  59 N15       30.06F
PINE RIDGE     SUNNY     36  28  73 CALM      30.08F
WINNER         CLOUDY    38  31  76 NW13      30.05R
$$

SDZ004>011-016>023-039-040-251800-
NORTHEAST SOUTH DAKOTA

CITY           SKY/WX    TMP DP  RH WIND       PRES   REMARKS
ABERDEEN       CLOUDY    28  23  81 N3        30.05R
WATERTOWN      CLOUDY    28  24  85 N7        29.99R WCI  21
SISSETON         N/A     23  18  81 N12       30.04R WCI  12
$$

SDZ017-020-022-023-036>040-048>070-251800-
SOUTHEAST SOUTH DAKOTA

CITY           SKY/WX    TMP DP  RH WIND       PRES   REMARKS
SIOUX FALLS    CLOUDY    33  31  92 N8        30.00R WCI  26
HURON          CLOUDY    31  28  89 N7        30.04R WCI  24
CHAMBERLAIN    CLOUDY    36  34  92 NW8       30.04R
MITCHELL       CLOUDY    33  31  92 NW10      30.04R WCI  25
YANKTON        CLOUDY    34  30  86 NW12      30.03R WCI  25
$$

ABBREVIATIONS USED IN REMARKS
   TC - TEMPERATURE IN CELSIUS
  WCI - WIND CHILL INDEX
   HX - HEAT INDEX
  VSB - VISIBILITY




USA.gov is the U.S. government's official web portal to all federal, state and local government web resources and services.